Theta_e
335 335 335 335 335 335 334 334 334 334 334 333 333 332 332 332 329 325 322 322 323 322 321 319 322 326 330 332 332 331 332 332 332 333 334 333 333 332 332 332 331 331 331 331 330 327 325 324 324 324 325 325 324 323 322 322 323 321 320 320 320 321 320 319 319 316 316 317 315 313 309 307 307 309 311 310 311 312 312 312 315 321 324 325 326
335 334 334 334 334 334 333 333 333 334 334 333 334 333 333 333 333 331 328 324 322 323 324 323 321 321 326 330 332 331 331 333 333 334 335 335 334 333 332 332 332 331 331 331 331 328 326 324 324 325 326 326 324 322 323 324 325 323 323 323 322 321 318 317 317 315 316 316 314 312 309 308 307 310 313 312 312 312 312 312 315 321 323 324 327
334 334 334 334 334 334 333 333 332 333 333 332 333 333 332 333 333 333 333 331 328 324 323 324 325 323 324 329 331 330 330 331 331 332 334 335 334 333 332 332 332 331 331 331 331 330 326 324 324 325 326 327 325 322 324 325 326 325 324 323 323 320 317 316 314 313 316 316 314 311 309 309 307 310 314 313 313 313 312 312 316 320 322 324 327
334 333 333 333 333 333 333 333 332 332 332 332 332 332 332 332 333 333 333 333 332 330 327 324 324 325 326 329 331 330 329 328 327 328 330 334 334 334 333 332 332 332 332 331 331 331 328 325 324 325 327 327 325 323 323 325 326 326 324 323 322 320 317 315 313 313 314 314 315 313 309 309 307 308 312 313 313 313 312 312 314 318 321 324 327
333 333 333 332 332 332 332 332 332 332 332 331 331 331 331 331 332 332 333 333 333 333 332 329 326 325 325 326 328 329 327 326 326 325 325 330 333 334 333 333 332 332 332 331 331 331 329 327 325 325 327 328 326 323 324 326 326 324 324 323 322 320 318 315 313 314 313 312 315 314 310 310 308 306 309 313 315 313 312 312 312 315 319 324 326
333 333 332 332 332 332 332 332 332 332 331 331 330 330 330 331 331 331 332 332 332 333 333 332 330 328 326 325 325 325 325 325 325 325 324 326 331 333 333 332 332 332 332 331 331 331 329 328 325 325 327 327 326 323 323 327 325 322 323 323 322 320 317 316 314 314 313 313 314 312 311 311 308 306 308 314 317 314 313 312 312 313 315 320 325
332 333 333 333 332 332 332 332 332 331 331 330 330 330 331 331 331 331 331 331 332 332 333 333 333 332 330 329 328 327 327 326 324 324 324 325 329 332 332 330 330 330 331 331 331 331 330 329 326 325 325 326 325 322 323 326 324 322 322 322 321 319 317 316 315 314 314 313 310 308 311 311 308 308 310 315 318 315 313 312 312 312 312 315 321
333 333 333 332 332 332 332 331 331 331 331 331 330 330 330 330 331 331 331 331 331 332 332 333 333 333 332 332 331 331 330 329 328 327 326 326 328 331 332 330 328 328 330 332 331 331 330 329 327 325 324 324 322 321 323 325 323 322 321 318 319 318 316 316 315 313 312 310 307 308 313 311 309 312 315 316 316 313 312 311 311 312 312 312 315
334 333 333 332 332 331 331 331 331 330 330 330 330 330 330 329 330 330 330 330 331 331 332 332 332 332 332 332 332 332 332 331 331 330 330 330 329 331 330 328 325 324 327 331 331 331 331 330 328 325 324 324 321 319 322 323 322 322 320 316 317 318 316 315 313 310 311 310 308 310 313 312 312 317 317 315 313 313 312 311 311 311 312 312 313
334 333 333 332 331 331 330 330 330 330 329 328 328 328 328 329 329 329 329 330 330 330 330 330 330 331 331 331 331 332 332 331 332 331 331 331 331 332 331 328 326 324 324 329 331 330 331 331 329 327 325 324 322 319 320 322 322 322 320 316 314 317 316 313 311 309 310 309 308 311 312 312 313 315 315 313 313 313 313 313 312 311 311 311 312
333 333 333 332 332 332 332 332 331 331 330 329 328 328 327 328 328 328 328 329 329 329 329 329 329 329 329 329 330 330 330 331 331 331 331 331 331 331 331 331 330 328 326 329 331 330 331 331 330 328 327 325 323 320 318 319 321 321 321 316 313 317 317 312 312 312 309 308 309 311 313 314 314 313 314 314 314 315 315 315 315 314 313 311 310
334 333 333 333 333 333 332 332 332 331 331 331 331 330 330 330 330 330 330 330 330 330 330 330 329 329 328 328 328 329 329 329 330 330 331 330 331 330 331 331 331 331 330 330 330 330 331 331 331 329 328 327 324 321 318 316 318 319 320 318 315 319 317 313 317 315 308 310 313 314 316 317 316 315 317 317 317 318 319 318 318 318 318 317 314
333 333 332 332 332 331 331 331 330 329 328 328 328 329 330 330 330 331 331 332 332 332 331 331 331 330 329 328 328 328 328 328 329 329 330 329 329 329 330 331 331 331 330 330 330 330 330 331 331 330 329 328 325 323 319 317 318 319 320 319 317 320 317 314 319 316 308 314 318 317 319 320 319 319 320 320 320 321 321 321 320 320 320 320 320
332 331 331 330 330 329 329 328 327 327 326 326 326 327 328 328 329 330 330 331 331 332 332 332 332 331 330 330 329 328 327 327 327 328 328 329 329 329 329 330 331 331 331 330 330 330 330 330 331 331 330 328 326 325 322 319 320 320 320 319 318 320 318 316 320 316 311 317 320 319 320 321 321 321 322 322 322 322 321 321 321 321 321 321 321
330 330 329 328 328 327 327 326 327 327 327 327 327 326 327 327 328 328 328 328 329 329 330 332 332 331 331 331 330 329 329 328 328 327 327 327 328 328 329 330 330 331 331 331 331 330 330 329 331 331 330 329 327 326 325 323 322 322 321 320 319 319 317 317 320 317 315 318 320 319 320 321 321 321 322 322 322 322 321 321 321 322 322 322 321
328 328 327 326 326 325 325 326 327 327 327 326 325 324 324 324 325 326 325 325 326 326 327 329 330 331 331 331 330 330 330 329 329 329 328 327 327 328 328 329 329 330 330 330 330 330 329 329 330 331 331 330 328 325 325 325 323 323 322 321 321 319 316 316 319 320 320 319 319 320 320 320 321 321 322 322 322 322 321 321 321 322 322 322 321
327 326 326 325 325 325 325 326 327 326 325 324 323 322 322 322 323 324 325 324 324 324 324 325 327 329 330 331 331 330 330 330 329 329 329 328 328 328 328 328 328 329 329 329 330 330 330 329 330 331 330 330 329 326 325 325 325 324 324 323 322 320 317 316 319 323 324 321 319 320 320 321 322 322 322 322 322 321 321 320 320 322 322 321 322
326 325 325 324 324 325 325 326 326 325 324 323 322 322 321 322 323 324 325 325 324 324 324 324 325 327 329 330 331 329 329 330 329 329 329 329 328 328 328 328 328 328 328 329 329 330 330 330 330 330 330 330 330 328 326 326 326 326 325 325 323 322 317 314 319 325 325 323 320 319 320 322 322 322 322 322 321 320 320 320 318 320 320 319 321
324 324 323 323 323 324 325 325 324 324 323 322 322 321 321 322 323 325 326 325 325 325 325 325 325 326 327 329 330 329 329 329 330 330 329 329 329 329 328 328 328 328 328 328 329 329 329 329 330 330 329 330 331 329 327 327 328 327 326 326 324 323 317 314 321 326 325 324 321 319 320 322 323 322 323 322 321 319 320 320 318 317 318 317 317
323 322 322 322 323 324 324 324 324 323 322 321 321 321 322 322 323 324 325 325 325 325 326 327 327 327 326 327 328 329 329 329 330 330 329 329 329 329 329 328 328 328 327 327 328 328 329 329 329 329 330 330 330 329 328 328 328 327 327 326 325 323 317 315 322 326 325 325 322 320 321 322 323 322 323 323 321 318 319 321 320 316 315 312 309
322 321 322 322 323 324 324 324 323 322 322 321 321 321 322 323 324 325 325 325 325 325 327 327 327 328 327 327 326 327 328 329 329 330 330 329 328 329 329 329 329 328 328 327 327 327 327 328 328 328 329 329 330 329 328 328 329 328 328 327 326 324 318 314 321 325 325 326 323 322 321 322 323 323 323 323 321 318 316 319 320 315 309 306 304
320 321 322 323 324 324 323 323 322 321 321 321 321 322 322 323 325 326 327 326 325 326 326 327 327 327 327 327 326 326 327 327 328 329 329 329 329 329 329 330 329 328 327 327 327 326 325 327 328 328 328 329 330 329 328 328 329 329 328 327 326 325 319 313 319 325 325 325 324 322 322 322 323 324 323 323 322 320 316 315 316 312 306 304 303
320 322 323 324 323 323 322 321 321 321 321 321 321 322 322 323 325 327 328 327 326 326 326 326 327 327 327 327 326 326 327 327 328 329 329 329 329 328 328 329 329 328 327 327 328 328 326 326 327 328 327 328 330 330 329 329 329 329 328 328 327 326 321 313 317 324 325 324 323 322 323 323 324 324 324 323 322 323 320 314 311 308 306 304 303
321 322 323 323 323 322 322 321 321 321 321 321 321 322 323 324 325 327 327 327 327 327 327 326 326 326 327 327 327 326 326 327 327 328 328 328 328 329 329 329 329 329 328 328 329 329 329 327 327 327 326 327 329 330 329 329 329 329 329 328 327 327 324 315 314 321 325 324 322 322 324 325 325 325 324 324 322 323 321 315 309 307 306 305 302
322 323 323 323 322 322 321 321 321 322 321 321 321 323 324 323 325 326 325 325 326 326 327 327 327 327 327 327 327 327 327 327 327 327 327 328 328 328 329 329 329 330 329 329 330 330 330 329 327 327 326 326 328 330 329 329 329 329 329 329 328 327 326 318 313 317 323 324 322 322 324 325 325 325 325 325 323 323 319 312 308 307 306 305 302
322 323 323 323 322 322 322 322 322 321 321 322 323 323 323 323 325 325 324 324 325 326 326 326 327 327 327 327 327 327 327 327 327 327 327 327 328 328 328 328 328 329 329 329 330 330 330 329 328 328 327 326 328 330 330 329 329 330 329 329 328 327 327 322 314 313 319 323 322 322 324 325 326 325 325 325 324 323 317 309 308 307 306 306 303
323 323 323 323 323 322 322 322 322 321 322 323 323 323 323 324 325 325 325 326 326 326 325 324 325 326 326 326 326 327 327 327 327 327 327 327 328 328 328 328 328 329 329 329 329 329 330 330 329 328 328 327 327 329 330 330 330 330 329 329 329 328 327 324 318 312 315 322 323 321 323 325 326 325 325 325 325 324 316 308 307 307 306 306 303
323 323 323 323 323 322 322 322 322 322 323 323 323 323 324 325 325 325 325 326 327 326 325 324 325 325 325 325 325 325 326 327 327 327 327 327 328 329 328 329 329 329 329 329 329 328 329 330 329 329 327 327 327 328 329 330 330 330 330 329 329 328 328 326 321 313 312 319 323 321 322 324 325 325 325 325 325 324 317 308 306 307 307 306 303
322 323 323 323 323 322 323 323 322 322 323 323 323 323 324 324 325 324 324 325 326 326 325 325 325 325 325 325 324 323 324 326 327 327 327 328 328 328 328 329 329 329 329 329 329 329 329 329 329 328 326 326 327 328 329 330 330 330 330 329 329 328 328 327 325 317 311 316 322 322 321 323 325 324 325 325 325 325 320 311 306 307 307 305 302
322 323 323 323 323 323 323 323 323 323 323 324 324 324 324 324 324 325 324 324 325 325 325 325 325 326 326 326 324 323 323 324 325 326 326 327 328 328 328 328 328 328 329 329 329 329 329 329 328 327 326 326 327 328 329 329 329 330 330 329 328 329 328 328 326 322 315 313 319 322 322 322 324 324 325 325 324 325 323 317 310 307 307 305 302
322 322 322 322 323 323 323 323 323 323 323 323 324 323 323 323 324 325 325 324 325 325 324 324 325 325 325 326 326 324 323 323 325 325 325 326 327 328 328 328 328 328 328 329 329 328 328 328 327 325 325 326 327 328 328 328 329 330 330 329 328 329 329 328 327 325 321 315 316 321 322 321 323 324 324 325 325 324 324 322 314 307 307 305 302
321 321 321 322 322 322 322 323 323 323 322 322 322 322 322 323 323 324 324 324 324 324 324 324 325 325 325 326 326 326 325 325 326 326 326 326 326 327 327 327 327 328 328 328 329 329 328 328 327 325 325 326 327 329 328 328 328 329 330 329 329 329 329 329 328 327 325 319 314 318 322 322 322 323 324 324 325 324 324 324 318 309 307 306 302
321 321 321 321 321 321 322 322 322 322 321 321 321 321 321 322 322 323 323 323 323 323 323 324 324 325 325 325 326 326 326 326 326 326 326 325 325 325 324 324 324 325 327 328 328 329 328 328 328 327 327 327 329 329 329 329 328 329 329 329 330 330 329 329 328 327 327 323 316 315 320 322 321 322 323 323 324 324 323 324 322 314 308 306 303
321 321 321 320 320 321 322 322 321 320 320 320 320 320 320 320 321 322 322 321 321 321 322 323 323 324 324 325 325 326 326 326 326 326 326 324 324 323 323 323 322 322 325 328 328 328 328 328 328 328 328 328 328 329 329 328 327 327 328 328 329 330 329 329 329 328 327 326 321 314 315 321 322 322 323 323 323 325 324 323 323 319 311 306 304
321 321 321 320 320 321 321 320 319 318 317 318 318 318 317 318 318 319 319 319 319 320 320 321 321 322 323 323 324 324 325 325 326 326 326 326 325 323 323 323 322 321 324 326 327 328 327 327 327 327 326 326 327 328 328 325 325 326 327 328 329 330 330 329 329 329 327 327 325 318 313 317 321 322 322 322 323 324 324 323 323 321 317 311 306
320 320 320 319 319 320 319 318 317 316 316 316 317 317 316 315 315 315 316 317 318 319 320 320 320 321 321 322 322 322 323 323 324 325 326 326 326 324 323 324 323 322 323 324 325 325 324 324 323 322 321 322 324 327 327 326 326 327 326 327 328 329 330 330 329 329 328 327 326 323 316 314 319 322 321 322 322 322 323 323 322 322 321 318 312
320 319 319 319 318 318 317 317 316 316 315 315 315 316 315 314 314 314 315 316 317 319 319 320 320 320 320 320 320 321 321 322 323 324 325 325 325 325 325 325 324 324 323 324 324 324 324 323 322 322 322 322 323 325 326 326 327 327 326 326 327 328 329 329 329 329 328 327 327 325 319 315 317 321 321 322 322 322 322 323 323 322 322 321 317
319 319 318 318 317 317 317 316 316 316 315 314 314 314 314 314 314 314 315 317 318 318 319 319 319 319 319 318 318 318 319 320 321 321 323 324 324 325 325 325 325 324 324 323 324 324 325 324 324 324 323 322 322 322 323 324 324 326 326 327 328 328 328 328 329 329 328 328 327 326 323 318 316 319 321 321 322 322 322 322 323 322 322 321 320
319 318 318 317 317 317 317 316 316 316 315 314 314 314 315 315 315 315 315 316 317 318 318 318 318 317 317 317 316 316 317 317 317 318 319 321 322 323 324 325 325 325 324 324 324 324 324 324 324 324 323 322 322 321 320 320 321 323 325 326 327 328 328 327 328 328 328 328 327 326 325 322 318 317 321 322 321 321 321 321 322 322 322 320 320
317 317 317 317 316 316 316 316 315 315 314 314 314 315 315 315 315 315 314 314 315 316 317 317 316 316 316 316 315 315 316 316 316 316 316 317 318 320 321 323 323 324 324 324 324 323 323 324 323 323 323 323 323 323 322 320 321 323 324 325 326 326 327 327 327 327 328 328 328 326 326 325 320 317 318 321 322 321 321 321 321 320 321 320 320
316 316 315 315 315 315 315 314 314 314 314 313 313 314 314 314 314 314 314 313 314 315 316 315 315 315 315 315 315 315 315 316 315 315 315 315 315 316 318 319 320 321 322 322 322 322 322 322 322 322 323 322 322 323 323 323 323 324 325 325 325 326 326 326 326 326 327 328 328 327 326 326 323 318 316 318 320 321 321 322 321 320 320 321 320
315 314 314 314 314 314 314 313 313 313 313 312 312 312 312 312 313 313 313 313 313 313 313 314 314 313 313 314 314 314 314 315 315 315 314 314 314 315 315 316 317 318 319 319 320 321 321 321 321 321 321 321 320 320 321 322 322 323 324 324 325 325 325 325 325 325 326 327 327 327 326 326 325 321 317 315 317 319 320 320 321 320 320 321 319
314 313 313 313 313 313 313 313 312 312 311 311 311 311 311 311 311 312 312 312 312 312 312 312 312 312 312 311 312 312 312 313 314 314 314 314 314 314 315 315 315 316 316 316 316 317 317 317 318 318 318 318 318 319 320 321 321 322 322 323 324 325 325 325 325 325 326 327 327 327 326 326 325 323 319 317 316 316 318 319 319 319 319 319 318
313 313 313 312 312 312 312 312 311 311 310 309 309 310 310 310 310 310 311 311 311 311 310 311 311 310 310 310 310 310 311 311 312 313 314 314 314 314 314 314 314 314 314 313 313 313 313 313 314 314 314 313 314 315 316 317 319 320 322 322 322 323 324 325 325 325 325 325 326 327 327 326 325 324 322 320 318 318 319 320 320 319 318 318 317
312 312 312 311 311 311 310 310 309 309 308 307 307 308 308 308 308 309 309 309 309 309 308 308 308 308 309 309 309 309 309 310 310 312 313 312 312 312 313 313 312 312 311 311 310 311 311 311 311 311 311 311 310 311 312 313 314 317 319 321 321 321 322 324 324 325 325 325 325 326 327 326 326 325 324 322 321 321 321 321 321 320 319 318 318
311 311 310 310 309 309 308 307 307 305 305 304 305 305 305 305 306 306 307 307 306 306 306 305 305 305 305 305 306 306 307 307 308 310 311 311 311 311 311 311 311 310 310 309 308 308 309 309 309 309 309 309 309 309 310 311 312 313 315 318 319 320 320 322 322 323 324 325 325 325 326 326 326 325 324 322 322 322 321 321 322 321 320 320 319
309 309 308 307 306 305 304 303 303 301 301 301 301 301 301 302 302 303 303 303 302 302 301 301 301 300 301 301 301 302 303 304 305 307 308 309 309 310 309 309 309 308 308 308 307 307 307 307 307 307 307 308 308 308 309 309 310 311 312 314 317 319 319 320 321 322 323 324 323 323 324 325 325 325 324 323 323 322 321 321 321 321 321 320 320
307 305 304 303 302 301 300 299 299 298 298 298 298 298 298 298 298 298 299 299 298 298 298 298 298 298 298 298 299 299 299 300 301 303 304 306 307 307 307 307 307 306 306 306 306 306 306 306 306 306 306 307 307 307 308 308 309 310 311 313 316 317 317 318 319 320 321 322 321 320 321 321 321 323 324 322 322 321 321 321 321 321 321 319 319
303 302 301 299 298 298 297 297 297 296 296 296 296 296 296 296 296 296 296 296 297 297 297 297 297 297 298 298 298 298 298 298 299 299 300 301 302 303 304 304 304 304 304 304 305 305 305 305 305 305 305 306 306 306 307 308 308 310 312 313 312 312 313 315 316 318 319 319 319 319 319 319 318 320 321 320 319 319 320 320 321 320 320 319 319
300 299 298 297 296 296 296 296 295 295 295 295 295 295 295 295 295 295 295 295 295 296 296 296 296 297 297 297 297 297 298 298 298 298 298 298 299 300 301 302 302 303 303 303 304 304 304 304 304 304 304 304 305 305 305 306 307 309 310 310 309 310 311 311 312 315 317 317 317 317 318 318 317 317 318 318 318 318 318 319 319 318 318 319 318
298 297 296 296 296 295 295 295 295 295 294 294 294 294 295 295 295 295 295 295 295 295 295 295 295 295 296 296 297 297 297 297 297 297 297 297 298 299 299 300 301 301 301 301 302 302 303 303 303 303 303 303 303 303 303 304 305 306 307 307 307 308 309 309 310 312 313 315 317 317 317 317 316 315 316 317 317 317 316 316 317 317 318 317 316
Wind_Speed
5 5 6 6 7 7 7 7 8 8 8 8 8 8 8 8 9 9 12 13 14 15 16 18 21 23 22 21 20 18 16 14 13 13 12 11 11 11 10 10 9 8 9 10 10 10 9 9 9 9 10 9 8 6 6 6 6 6 7 7 7 8 7 7 7 6 5 5 4 3 3 3 3 4 4 4 6 8 9 9 10 12 13 11 9
6 8 9 9 10 9 9 9 9 9 8 9 10 10 10 10 10 10 11 13 15 16 17 17 19 22 23 22 21 20 19 17 16 15 15 14 13 13 12 12 11 9 10 10 11 11 9 9 9 9 9 8 7 6 5 5 6 6 6 7 8 9 9 8 8 7 6 6 6 4 3 4 5 4 4 5 6 9 10 10 12 13 13 11 10
7 8 9 10 11 11 10 10 10 10 10 10 11 12 12 11 11 11 12 13 15 16 18 19 19 21 23 23 23 23 21 20 18 18 18 17 15 15 14 13 12 11 11 11 11 12 11 9 8 8 8 8 7 6 5 5 6 6 7 9 10 10 10 10 9 8 7 6 6 6 5 5 6 6 5 5 7 10 11 11 13 14 13 12 11
7 8 9 10 10 11 11 11 12 12 12 13 12 13 14 13 12 13 14 14 15 16 18 21 22 22 22 24 25 25 25 24 23 22 22 21 19 17 16 15 14 13 13 12 12 13 12 10 9 9 8 8 8 6 6 7 7 8 8 10 12 11 11 10 9 9 7 6 6 6 6 6 7 7 6 6 8 11 12 12 14 14 14 14 13
7 8 9 9 10 10 11 12 13 14 14 14 14 15 15 15 14 14 15 15 16 17 18 20 22 23 24 25 27 28 28 29 29 27 26 25 23 21 18 16 15 14 14 13 13 13 13 12 10 9 9 9 9 7 6 8 9 11 11 10 11 11 10 10 10 8 7 7 7 6 6 6 8 8 7 7 9 12 12 12 13 13 14 15 14
8 8 9 9 10 10 11 12 13 14 15 15 16 15 15 15 15 15 15 15 16 17 18 20 21 23 24 25 27 29 31 31 32 31 29 28 26 24 21 18 16 16 16 15 14 13 13 13 11 10 10 11 11 9 7 9 10 11 11 11 11 10 9 10 9 8 7 8 7 6 6 6 8 9 8 8 9 12 13 12 12 11 13 16 16
7 7 8 9 9 10 10 11 12 13 14 15 15 15 15 15 15 15 16 16 16 16 17 19 20 22 23 24 25 27 28 30 31 31 30 29 28 26 24 19 16 17 18 17 16 14 14 14 13 11 11 12 12 10 8 10 11 10 11 11 10 10 9 9 8 8 8 7 6 7 7 7 9 10 9 9 9 11 13 13 12 11 11 13 16
6 7 7 7 8 8 9 10 11 12 13 14 15 15 15 15 15 16 16 16 15 14 15 18 19 20 22 23 25 26 26 27 28 28 28 28 28 27 25 21 17 17 19 20 18 16 14 15 14 12 13 13 13 11 9 11 11 9 10 10 10 10 9 9 8 8 7 7 7 8 8 9 10 10 9 9 9 11 12 12 11 11 10 11 13
6 6 6 6 7 8 9 10 11 13 13 14 15 15 16 16 16 16 17 17 16 15 15 17 19 20 21 22 23 25 26 27 27 27 28 27 27 27 26 26 26 23 22 22 21 18 16 16 15 13 14 14 14 12 11 11 10 9 9 10 10 9 9 8 8 8 8 8 8 9 10 11 12 11 10 11 10 11 11 12 11 11 10 10 11
6 6 7 7 8 9 10 11 12 13 13 14 15 15 16 17 17 17 17 18 18 18 17 18 19 20 21 22 23 24 25 26 27 28 29 28 28 27 27 28 30 27 25 25 23 20 18 17 16 15 15 16 15 13 12 11 10 9 9 9 9 9 9 8 8 8 8 8 10 11 13 13 12 12 12 12 11 11 11 11 11 11 10 10 10
7 8 8 9 9 10 10 11 12 12 13 14 15 15 16 17 18 18 18 19 19 19 19 19 20 20 21 22 22 23 24 25 25 26 27 28 27 27 27 27 27 26 26 27 25 22 20 19 18 17 16 16 16 14 12 12 12 11 10 9 9 10 9 9 9 9 9 11 12 13 13 14 13 13 13 12 12 12 11 11 11 10 10 10 10
7 7 8 9 9 10 10 11 12 13 14 15 16 16 17 17 18 19 19 20 20 19 19 20 20 21 22 23 22 23 23 23 23 23 24 25 25 26 28 27 26 26 26 26 26 24 22 20 19 18 16 15 16 15 13 13 13 12 11 9 8 10 9 9 10 10 11 13 12 12 12 13 13 14 13 12 12 11 11 10 10 10 10 10 9
7 8 9 9 10 11 12 13 14 15 15 16 16 17 17 17 18 18 19 19 19 19 18 19 20 20 21 21 22 23 23 22 22 22 22 22 23 24 25 25 25 26 26 26 27 26 23 22 21 20 18 16 15 16 15 14 14 13 11 10 9 10 10 10 11 11 13 13 12 12 12 12 12 13 12 11 10 10 10 10 10 9 9 9 9
10 10 11 12 12 13 14 14 14 15 15 15 16 17 17 18 18 19 19 19 20 20 19 19 20 20 20 20 21 21 22 22 22 22 21 21 23 23 23 23 22 24 26 27 27 27 25 24 24 22 21 18 15 15 15 15 14 13 12 11 10 10 11 12 13 13 13 13 13 13 13 14 14 14 13 11 10 10 10 10 10 9 9 10 9
12 13 13 13 14 14 14 14 14 14 15 16 17 18 18 18 18 19 20 21 22 22 20 19 20 21 21 20 20 19 19 19 20 20 18 17 19 21 21 21 20 21 24 26 27 27 27 26 26 24 23 21 18 15 14 14 14 13 13 12 11 11 12 13 15 14 12 13 14 14 15 16 15 15 13 12 12 11 11 11 11 10 10 10 10
13 14 14 14 14 14 14 14 14 15 17 19 20 20 20 19 19 19 21 23 23 24 23 21 21 21 19 19 18 17 17 16 16 17 16 16 17 18 20 21 21 21 22 24 25 27 29 28 27 27 25 23 21 18 15 15 14 14 14 13 12 11 12 14 16 15 12 12 14 15 16 16 15 14 13 13 13 12 13 12 12 13 12 11 9
14 14 15 15 15 16 16 16 16 18 20 21 23 23 23 22 21 19 20 21 23 24 25 24 24 23 22 21 18 14 16 18 16 16 17 17 16 16 18 19 21 23 23 24 25 26 28 28 27 29 27 24 22 21 19 17 16 16 16 15 13 12 12 14 17 17 14 13 13 15 16 15 15 15 14 14 13 13 14 13 14 14 13 12 10
14 15 15 16 16 16 17 18 19 20 22 23 24 25 25 25 23 20 19 20 21 23 24 25 25 25 24 25 25 22 22 20 17 16 18 18 17 18 19 19 21 23 24 26 26 27 27 27 28 29 29 27 24 23 22 21 19 18 18 16 14 13 12 14 20 18 16 15 13 14 16 16 16 15 15 15 13 13 14 14 15 15 14 12 11
14 15 16 16 16 17 18 19 20 21 22 23 25 25 26 26 24 21 19 19 20 21 23 23 25 26 24 24 28 28 26 23 20 18 19 20 19 19 20 20 21 22 23 25 27 28 28 28 28 29 31 31 27 24 25 24 21 20 19 17 15 13 12 17 23 20 19 17 13 14 16 17 16 16 16 16 14 13 15 15 15 15 14 13 13
15 15 16 16 16 16 18 19 20 21 23 23 24 25 25 26 24 21 18 18 20 20 21 22 23 25 24 24 27 25 23 25 25 22 22 22 21 20 20 20 21 22 22 23 24 27 29 30 30 29 31 34 30 27 26 25 23 21 20 18 17 15 14 20 25 23 22 21 16 15 17 17 17 16 17 17 14 14 16 15 14 15 15 14 14
15 15 15 15 15 16 18 19 20 20 22 22 23 24 24 24 23 20 17 17 19 19 20 22 22 23 22 23 25 25 24 22 22 22 23 24 24 22 20 18 20 22 23 24 24 25 27 30 32 31 30 33 32 29 28 27 25 23 22 20 18 16 15 22 26 26 26 24 19 18 19 18 17 17 17 17 15 14 16 17 16 15 15 15 15
13 13 13 14 15 16 17 18 19 19 20 22 22 23 23 22 20 18 17 18 19 19 19 21 21 22 21 21 21 23 24 19 16 18 21 24 26 25 21 20 22 23 23 24 25 25 27 29 31 32 32 31 32 31 30 28 27 25 23 21 20 18 17 22 27 28 28 27 23 20 21 19 18 18 18 17 16 15 15 18 18 15 15 15 15
11 11 12 13 14 15 16 17 18 19 20 21 22 21 21 21 19 15 15 16 17 18 19 20 21 20 19 18 19 19 20 20 18 17 19 22 25 26 24 22 23 25 24 24 24 25 27 28 29 32 33 31 32 34 32 30 28 26 24 22 21 20 18 22 27 29 30 29 26 23 22 20 19 20 20 18 17 16 15 17 19 17 15 16 16
10 11 12 13 14 15 16 17 18 18 19 20 20 20 20 20 19 15 14 14 15 16 17 19 20 20 18 17 17 17 17 20 21 20 20 22 23 25 26 23 23 24 24 23 23 24 26 27 27 29 32 31 32 34 35 33 30 27 26 24 23 22 20 22 27 30 31 31 28 25 24 23 22 22 22 20 18 16 15 16 18 18 16 16 16
11 12 14 14 15 16 17 17 17 17 18 18 19 19 19 19 18 16 16 16 16 16 16 16 17 18 18 18 17 17 17 19 21 21 22 22 23 25 26 25 24 25 26 25 24 24 25 26 27 28 29 30 31 33 36 35 31 29 28 26 25 24 22 23 26 30 32 32 30 28 26 25 24 22 23 22 19 16 15 15 18 18 16 16 17
12 14 15 15 15 16 17 17 16 16 17 17 17 18 18 18 18 17 16 16 15 16 16 14 14 15 16 18 18 18 18 18 19 19 19 20 21 23 23 24 25 25 27 27 25 25 25 25 27 29 29 29 30 33 36 36 33 31 29 28 27 26 25 24 25 29 32 33 32 30 28 27 25 24 24 24 21 17 16 16 18 18 16 16 17
13 14 14 14 15 16 16 15 15 15 16 16 16 17 17 18 17 16 16 16 15 14 15 15 14 15 15 16 17 17 16 17 18 19 18 18 20 20 21 22 24 24 25 26 27 27 26 26 27 29 29 29 30 32 35 35 34 33 30 30 29 28 27 26 26 28 31 33 33 32 31 29 27 25 24 25 23 19 17 18 18 18 17 17 18
13 13 13 14 15 14 14 13 14 14 14 15 15 16 17 17 17 17 16 16 15 13 14 16 15 15 15 16 17 17 15 15 15 16 17 17 18 19 19 21 23 23 22 22 26 28 26 27 28 28 28 28 28 30 33 34 36 35 33 32 32 30 30 28 27 28 29 33 34 33 32 31 29 26 25 26 25 21 19 19 19 18 17 18 18
12 12 12 14 14 13 13 12 13 13 14 15 15 15 16 17 18 18 17 17 16 14 14 15 15 16 15 16 17 17 16 15 14 14 14 16 18 18 19 20 22 24 24 21 24 27 25 25 26 27 27 26 26 28 30 33 36 38 37 36 34 32 31 31 29 28 29 33 35 35 34 33 31 28 26 27 27 24 21 21 20 19 19 19 19
11 11 12 12 12 12 12 12 13 14 14 14 15 15 16 18 19 18 17 17 16 15 14 15 16 17 17 17 16 16 16 16 15 15 15 14 15 16 17 18 20 23 25 25 27 26 24 24 24 24 25 25 25 26 28 31 35 38 40 40 37 33 32 32 31 30 30 32 36 36 36 35 33 30 27 27 28 26 24 22 21 21 20 20 20
10 11 11 10 10 11 12 13 14 14 14 14 14 15 16 17 18 17 16 16 16 15 15 16 17 18 19 19 17 16 16 16 17 17 16 15 14 13 13 15 17 21 23 27 30 28 24 24 23 22 22 23 23 24 26 29 34 37 39 40 37 34 33 33 33 33 31 32 35 37 37 36 35 32 29 28 29 29 27 24 23 22 21 21 21
10 11 10 10 10 11 12 13 14 14 14 15 15 15 16 17 17 17 17 17 16 16 16 16 16 17 18 19 18 17 17 16 18 18 16 15 14 14 13 13 15 18 22 26 29 30 27 25 24 23 22 22 23 24 25 26 30 34 36 37 36 35 36 36 35 35 33 33 35 37 38 37 36 35 32 30 30 30 29 26 25 24 23 22 22
11 11 11 11 11 11 12 13 13 14 14 15 15 16 16 17 17 18 18 18 18 18 18 18 18 18 17 18 17 17 17 17 19 19 16 14 14 15 15 14 14 15 19 25 28 30 29 27 25 24 23 23 22 23 24 23 26 30 33 35 37 37 38 38 37 37 36 35 35 37 38 38 37 36 34 32 30 30 30 29 27 26 24 23 23
11 11 11 12 12 12 12 12 13 14 15 16 16 17 18 19 19 19 19 20 20 20 20 20 19 19 19 19 19 18 18 17 18 18 17 16 16 16 16 14 14 14 14 20 24 26 27 27 25 22 20 20 22 24 26 25 23 24 27 30 35 37 38 39 39 39 39 37 36 36 38 39 38 37 36 34 31 30 31 32 30 27 26 24 23
12 11 11 12 12 11 11 11 12 13 14 16 16 17 19 20 20 20 20 20 20 20 20 21 21 21 21 21 22 22 20 19 18 18 18 19 18 17 16 15 14 13 12 13 16 18 21 21 18 15 13 15 19 23 26 25 22 22 23 25 28 33 37 39 40 40 39 38 37 35 37 39 39 38 36 35 33 31 30 30 28 26 26 26 24
11 11 11 11 11 11 11 11 12 13 13 14 15 16 17 18 19 20 19 20 20 20 21 22 23 23 23 23 24 23 23 22 20 19 18 19 18 17 16 16 14 13 13 12 12 12 14 14 12 11 11 13 15 17 18 19 19 20 23 24 25 28 33 36 39 40 39 39 38 35 35 38 40 39 38 36 35 33 29 27 26 25 25 26 26
11 11 10 10 10 10 11 11 12 12 13 13 14 15 16 18 19 19 19 20 20 20 21 22 23 23 23 25 25 25 25 24 23 22 20 19 18 18 17 17 15 14 13 13 13 12 12 12 13 13 12 10 11 12 13 14 17 20 24 27 27 28 30 33 36 39 40 41 39 36 36 37 39 39 39 37 36 34 31 27 25 24 24 25 26
10 10 10 10 10 10 11 11 11 12 12 13 14 16 18 19 20 20 20 20 20 20 20 21 22 23 25 27 28 29 29 28 27 25 23 21 20 19 18 18 16 14 12 12 13 12 10 12 14 15 13 10 10 12 14 15 17 21 25 29 30 30 31 32 34 38 40 40 40 39 38 39 39 39 39 38 37 36 34 30 27 25 24 24 25
9 9 9 10 10 10 11 11 11 12 13 15 17 18 19 20 20 19 19 19 20 20 20 21 23 24 26 28 29 31 32 31 31 30 28 26 24 22 20 19 17 14 12 12 12 12 10 10 12 13 13 13 14 15 16 18 21 24 25 29 32 32 33 34 34 37 39 39 39 40 40 39 39 39 39 38 37 36 35 33 31 29 27 25 25
10 10 10 11 11 12 12 12 12 13 15 17 19 20 21 21 20 19 19 19 20 20 20 21 23 24 25 26 28 30 31 31 31 33 33 31 30 27 25 23 20 18 17 14 11 11 11 11 12 12 12 14 16 16 16 18 22 24 25 28 31 32 34 35 34 35 37 38 39 41 41 39 38 38 38 38 37 37 35 35 33 32 30 28 25
10 11 11 12 13 13 13 13 13 14 15 18 20 21 21 21 21 20 20 19 19 19 19 20 22 23 24 25 26 27 27 28 29 30 31 31 32 32 30 28 25 24 23 20 16 13 12 13 15 14 13 12 13 14 15 15 17 21 24 25 25 27 32 33 32 33 35 37 39 41 42 41 39 39 40 39 39 38 37 36 34 32 31 30 27
10 11 11 11 12 13 13 13 14 14 17 19 20 20 20 21 21 20 20 20 19 19 19 20 21 22 23 24 24 25 26 26 27 28 28 29 30 31 31 30 29 28 28 27 25 22 19 18 18 17 17 17 17 15 13 13 14 17 20 21 20 21 25 28 30 32 32 34 37 39 41 42 41 40 41 41 40 40 39 38 36 34 33 31 30
9 10 10 10 11 12 13 13 14 16 18 20 19 19 19 19 19 19 19 19 19 20 20 20 21 22 23 23 24 25 27 27 27 27 27 27 27 28 29 29 30 31 32 32 32 30 27 25 24 24 24 24 24 22 19 17 15 14 14 17 21 23 25 26 29 32 32 32 35 38 40 42 42 42 42 42 41 41 40 38 36 35 34 33 32
9 9 10 11 12 12 13 13 14 16 19 19 18 18 18 18 18 18 18 18 19 20 21 21 22 23 24 25 25 26 28 29 28 26 26 27 26 26 27 29 31 32 33 34 34 33 32 30 29 29 30 29 28 27 26 24 21 17 14 13 15 21 26 26 26 27 29 30 33 36 39 41 42 43 43 42 41 40 39 38 37 36 36 35 34
9 9 10 11 12 13 13 14 15 17 19 18 18 18 18 18 18 18 18 19 20 22 23 23 24 24 25 25 26 26 27 28 28 26 24 25 25 25 25 27 29 31 33 34 34 32 31 30 30 30 29 28 29 30 29 29 26 22 17 15 12 13 20 25 25 25 26 27 30 35 38 40 42 43 43 42 40 39 39 38 37 35 34 34 34
9 10 11 12 13 14 14 15 16 18 19 19 19 19 19 19 20 20 20 21 22 23 25 25 26 27 28 27 27 27 27 27 27 25 23 23 23 23 24 26 28 29 30 32 33 32 31 30 29 28 27 26 27 28 27 28 28 27 23 18 15 12 14 19 24 26 26 26 29 34 37 40 42 43 43 41 39 39 39 38 38 36 32 32 34
10 11 12 13 14 15 16 16 17 19 20 20 19 20 20 20 20 21 21 22 24 25 26 27 28 29 30 30 30 30 29 29 27 25 23 22 21 22 24 26 27 28 30 31 31 30 29 29 27 26 26 25 25 26 26 26 24 25 25 19 14 13 13 15 20 24 26 28 30 34 38 41 43 44 44 41 40 42 40 38 38 36 30 30 34
12 13 14 15 16 16 16 16 17 19 19 19 18 18 19 19 20 21 22 23 24 26 27 28 29 30 30 31 32 32 32 31 29 27 25 23 22 23 24 25 26 29 30 29 28 27 26 26 25 24 23 24 24 24 25 25 23 21 19 15 12 13 13 11 15 21 24 25 28 33 35 35 39 43 43 40 41 44 41 38 39 36 29 28 31
13 13 14 15 15 15 15 15 16 17 18 17 17 17 17 18 19 21 22 23 25 26 27 28 28 29 30 30 31 31 32 31 30 29 28 27 26 26 26 25 26 29 30 27 25 25 25 24 24 23 22 23 24 24 24 25 24 21 19 17 19 22 19 13 11 13 16 17 21 26 27 26 29 34 38 37 36 37 36 37 39 34 29 28 28
13 13 14 14 14 14 15 16 16 17 18 18 18 18 18 19 20 22 23 23 25 26 27 27 27 28 28 29 29 30 30 29 29 30 30 30 30 31 30 28 27 28 28 27 25 25 24 23 23 23 24 24 25 26 26 26 25 23 22 22 23 22 21 20 15 5 8 12 12 12 14 16 17 20 25 26 24 24 25 28 30 25 23 24 27
12 13 13 13 14 15 16 17 18 18 20 20 20 20 21 21 22 23 24 25 26 26 27 27 27 27 28 28 29 28 27 27 27 28 30 30 31 32 32 31 29 28 27 26 26 26 25 24 24 25 26 28 30 30 30 30 29 27 26 25 23 21 20 22 19 13 7 2 10 10 9 9 10 12 15 15 14 15 16 18 21 20 20 22 25
Wind_Direction
321 318 318 316 313 312 311 313 307 299 293 291 288 283 281 278 274 264 255 252 252 254 254 255 252 249 249 252 256 257 257 258 260 264 270 274 275 277 283 287 289 294 304 315 319 318 309 304 303 303 305 309 311 303 290 279 272 259 244 240 235 230 228 222 223 226 225 231 235 221 206 199 180 176 175 154 144 154 157 143 129 131 134 128 124
313 312 312 312 311 314 316 317 312 304 295 288 285 280 276 274 276 274 267 260 255 255 256 259 258 253 247 247 252 255 256 259 263 266 269 273 274 274 276 279 279 279 290 303 310 311 305 297 297 296 292 294 306 306 291 282 275 260 243 237 235 233 233 233 236 237 239 241 238 230 213 193 185 178 167 157 147 150 155 146 136 135 133 127 127
307 305 305 306 308 312 313 313 309 305 300 291 286 283 281 278 274 269 265 262 260 258 256 256 256 256 251 247 247 251 255 259 263 268 270 272 273 272 271 273 272 270 279 291 301 305 302 294 287 284 277 275 291 300 277 263 260 253 242 237 239 241 241 246 248 241 238 237 232 228 215 194 190 183 164 154 149 149 150 146 144 141 132 126 128
298 298 300 302 306 307 308 308 304 302 301 298 296 294 292 290 283 273 266 262 260 259 258 256 254 254 252 250 248 249 254 259 263 267 272 272 271 270 268 267 267 264 268 280 293 298 297 292 285 275 264 265 278 286 267 248 244 249 248 246 247 248 249 250 247 240 234 226 223 223 214 196 193 190 171 152 147 149 148 145 149 149 138 131 132
292 295 297 298 300 301 301 300 299 298 299 298 298 298 297 294 289 282 276 269 264 261 260 259 256 254 252 250 250 251 255 259 262 264 269 271 269 270 267 262 260 259 260 268 281 289 290 287 284 273 259 259 265 270 259 244 246 252 253 254 254 251 249 247 244 241 230 221 221 215 209 196 192 191 173 153 148 151 150 147 152 154 148 143 138
289 293 296 300 302 303 302 298 297 297 298 298 297 297 296 294 291 286 282 277 272 268 264 261 259 258 255 252 252 254 256 259 261 262 265 267 265 267 268 264 261 260 257 260 270 279 283 281 278 271 257 255 260 262 253 248 255 257 251 249 252 249 243 243 241 238 226 219 219 203 195 189 184 184 171 159 153 152 153 150 153 155 153 155 151
292 300 304 307 308 309 308 303 300 298 299 300 301 302 301 297 294 291 287 282 276 271 267 264 261 260 260 258 257 258 260 261 262 263 263 262 261 263 267 266 265 264 257 254 261 269 276 277 272 266 259 255 258 258 244 246 256 257 250 243 246 245 236 239 238 231 223 213 206 189 184 180 173 173 167 162 155 150 153 153 154 153 151 157 160
299 305 304 305 308 309 309 304 302 301 301 302 304 307 306 303 300 296 292 287 279 273 269 268 266 265 263 262 262 262 263 264 265 265 263 261 260 261 263 264 267 269 262 253 254 261 267 271 268 261 261 260 261 259 238 240 253 254 251 242 242 242 230 234 237 227 216 200 192 184 180 175 167 165 161 157 150 146 148 152 153 152 148 150 157
303 300 298 300 306 309 308 305 304 303 303 305 306 307 307 306 304 300 296 291 285 279 274 271 270 269 268 266 265 264 264 265 266 266 265 264 263 263 262 262 264 267 264 253 249 253 259 265 264 256 258 261 263 261 241 239 253 255 256 247 237 236 228 228 228 218 207 194 186 179 172 166 162 160 158 153 148 144 145 148 150 152 152 150 154
301 297 298 304 310 313 313 310 307 306 305 306 306 306 306 306 305 304 300 295 291 286 280 276 274 273 272 272 270 268 266 265 265 265 265 265 266 267 264 262 262 261 259 252 247 248 252 258 258 252 252 257 260 260 244 238 247 249 256 254 233 225 227 221 213 206 200 186 173 167 163 158 154 154 152 149 146 143 142 144 147 150 153 157 161
299 302 306 312 316 318 317 313 310 308 307 307 307 307 306 305 304 303 300 297 295 291 287 282 279 277 275 275 275 273 270 268 266 265 265 265 265 266 264 262 260 257 254 248 244 245 248 251 252 250 248 250 255 257 247 238 241 240 242 255 238 219 219 209 201 200 191 174 164 163 162 157 150 149 148 146 146 144 142 144 145 148 151 155 162
313 318 320 323 322 319 318 316 317 316 314 313 311 308 305 303 301 300 299 297 295 293 290 286 283 281 278 277 276 275 273 270 268 266 265 265 265 265 264 261 256 253 250 245 243 241 244 246 247 247 244 244 248 251 248 240 244 243 237 249 239 214 206 197 195 194 185 174 165 165 165 162 157 153 151 148 148 147 147 148 147 149 150 151 155
332 331 329 328 325 323 322 322 323 322 319 316 312 309 306 304 301 298 295 292 290 290 290 289 287 285 283 283 280 277 273 271 268 266 264 264 264 263 264 262 255 250 246 244 243 239 239 243 244 244 241 238 241 246 244 237 241 245 240 246 239 215 200 192 189 185 182 176 171 171 167 168 165 159 156 152 151 150 151 151 149 152 152 150 150
336 334 333 331 329 328 328 329 329 326 323 320 317 315 313 310 305 300 296 291 288 287 286 286 286 287 290 290 288 284 279 275 271 267 264 264 265 265 264 261 256 250 245 242 240 237 238 239 240 241 240 236 233 238 239 234 236 240 241 244 243 222 199 191 186 179 179 178 179 180 174 174 171 164 160 159 160 156 154 154 152 154 154 149 143
337 336 336 335 334 335 336 336 333 328 325 323 322 321 317 312 307 303 299 295 291 290 286 278 277 285 288 283 283 286 286 283 278 274 271 268 267 266 264 260 256 252 247 243 238 236 236 235 235 237 238 236 232 231 232 232 234 238 241 241 244 233 206 194 185 178 181 179 184 187 178 177 172 165 162 165 171 166 160 162 158 157 159 155 145
339 339 339 339 338 339 338 336 333 329 328 327 327 326 321 315 310 304 301 298 295 293 289 281 276 280 280 274 274 277 277 278 281 280 281 279 272 267 264 261 257 253 249 247 242 238 236 234 234 235 235 234 230 230 230 229 232 238 242 239 242 237 213 197 182 179 191 189 191 192 178 175 171 165 168 172 176 173 168 170 167 162 165 165 158
342 341 340 339 338 338 336 334 333 332 331 330 328 326 324 320 315 308 302 299 296 294 292 288 283 278 276 273 269 267 270 275 279 281 284 285 279 273 268 264 261 256 252 250 246 241 238 234 234 235 236 233 228 229 231 230 230 233 238 238 238 237 223 199 176 177 199 201 202 197 178 174 175 173 176 176 178 178 175 178 177 175 177 178 176
341 339 337 335 335 334 333 332 332 331 330 328 327 326 325 324 320 312 304 298 295 294 293 291 286 279 276 275 273 271 271 273 274 276 282 283 277 275 272 265 264 260 254 249 245 243 240 236 236 236 237 234 227 226 229 231 231 231 234 238 236 237 230 194 171 176 200 205 212 204 182 179 183 183 184 181 181 183 183 185 187 190 192 191 190
334 332 332 331 330 329 330 330 330 330 328 327 328 329 328 326 322 312 304 301 297 293 291 291 288 283 278 277 281 279 270 266 265 267 273 276 275 275 273 267 263 261 255 248 243 243 242 240 239 237 236 234 226 223 227 230 231 230 232 235 234 234 223 187 171 179 196 201 211 206 188 186 190 190 189 188 187 188 190 191 195 199 198 194 193
326 326 327 328 329 329 330 331 330 329 329 330 331 331 330 327 322 314 306 302 298 293 292 291 290 291 286 281 285 286 276 264 258 262 269 272 273 273 273 269 260 257 255 252 247 245 245 244 242 240 239 237 229 223 226 229 229 229 229 230 230 229 214 189 179 181 190 195 203 202 195 194 196 195 194 195 194 192 193 194 199 203 197 193 191
323 325 328 332 334 333 333 332 331 331 332 334 334 335 334 331 328 325 318 308 302 298 295 294 294 297 295 288 283 283 287 274 255 260 269 269 270 270 268 264 258 256 255 255 255 250 249 248 246 245 243 240 234 227 225 228 229 227 228 227 228 226 211 196 189 184 187 192 195 198 200 200 199 198 198 201 201 198 196 197 202 204 198 192 188
327 329 334 339 337 336 335 334 335 336 337 337 337 338 338 339 338 330 320 312 308 304 298 299 300 299 298 296 287 280 287 289 271 266 267 263 266 269 266 258 257 262 261 260 260 254 251 251 248 245 244 241 238 232 226 227 229 227 227 226 225 225 213 203 197 191 190 191 191 195 201 202 201 200 202 204 206 206 203 204 207 205 197 194 187
332 336 342 344 341 340 340 339 340 341 341 340 339 340 342 345 344 333 321 314 313 311 305 303 305 305 303 300 296 285 281 284 281 278 273 267 268 270 269 263 260 265 267 268 266 259 254 252 249 246 244 242 240 237 230 227 229 227 226 226 225 223 216 208 202 197 194 192 190 193 198 203 203 201 203 206 207 209 209 210 212 207 200 197 191
340 345 350 350 346 345 344 344 346 345 344 342 341 342 343 346 345 339 334 330 327 323 313 306 304 306 309 304 299 292 283 279 275 273 274 274 274 271 269 265 261 265 269 270 269 265 256 250 251 248 245 243 242 239 232 227 229 228 224 224 224 223 218 212 207 202 198 195 192 193 196 202 205 203 205 208 208 209 214 215 213 208 202 199 196
348 353 356 353 348 347 348 349 349 349 347 345 344 344 344 345 345 346 349 349 345 339 329 320 310 307 309 308 304 296 291 286 278 271 269 272 274 273 272 269 264 266 271 271 268 268 260 250 249 249 246 243 242 239 233 228 228 228 224 223 223 222 220 215 211 208 204 199 194 193 196 202 206 206 207 210 211 211 216 217 211 207 204 202 200
350 357 356 351 349 350 352 353 354 353 351 348 347 345 345 346 347 350 354 354 351 347 344 341 331 323 320 318 313 305 297 292 288 281 273 270 271 273 276 275 270 270 272 270 267 265 259 251 248 249 248 244 241 240 236 231 229 227 224 223 223 221 220 218 213 211 209 204 197 195 198 201 205 208 208 208 211 213 215 215 209 205 204 204 203
353 356 353 350 354 356 356 358 359 358 356 352 350 348 349 351 352 352 353 352 352 349 349 351 349 344 340 335 329 321 309 297 293 289 280 273 272 271 273 274 273 271 271 271 269 264 256 251 250 249 248 245 242 240 239 235 231 228 224 223 224 222 220 219 216 213 212 207 201 197 199 202 203 207 209 208 210 212 213 211 207 204 206 207 204
354 353 352 354 359 0 1 4 5 5 3 359 356 354 354 356 356 357 357 356 357 355 352 354 354 351 349 344 339 337 330 317 305 296 287 281 278 277 277 276 273 270 269 267 266 265 259 250 248 245 243 245 244 241 239 235 231 229 226 223 223 222 220 219 218 215 212 209 205 201 201 203 204 205 208 210 210 211 212 210 205 204 208 208 204
357 358 360 4 6 8 12 15 14 14 10 6 2 359 358 358 358 359 1 3 3 2 359 357 356 354 350 343 342 344 341 332 325 316 303 291 285 283 280 276 272 270 269 263 261 265 258 245 242 241 240 243 244 242 239 235 231 229 227 224 223 222 220 219 218 216 213 210 208 205 204 205 206 206 207 210 210 211 213 212 207 204 207 207 204
5 8 10 15 19 23 25 25 23 21 16 12 8 5 3 1 1 2 3 4 6 5 2 360 358 357 354 350 346 344 341 339 338 335 325 310 295 289 285 280 276 273 272 268 266 264 253 243 245 247 245 245 245 244 241 236 233 231 229 227 224 223 222 221 220 217 215 212 210 209 207 206 207 207 207 209 211 213 215 215 211 207 207 207 204
15 18 23 30 34 33 31 30 30 27 22 18 14 11 10 7 5 7 6 5 4 3 360 357 357 357 357 358 356 349 344 344 342 337 332 326 316 306 299 291 285 281 278 273 268 263 255 250 253 253 252 252 252 251 247 239 235 234 232 230 226 224 224 223 222 219 217 215 212 210 209 209 209 209 208 209 214 217 218 216 214 210 209 209 206
32 33 37 41 38 34 34 35 34 31 27 24 19 15 14 13 11 11 9 6 4 2 1 1 2 3 359 360 2 358 353 351 348 343 337 333 329 324 317 309 299 289 282 276 270 266 260 254 254 255 255 258 258 257 252 243 238 236 234 232 229 226 226 224 222 220 219 217 214 212 211 211 211 210 209 210 215 219 220 218 214 211 210 211 209
50 46 46 44 41 38 39 39 36 33 31 26 20 17 17 18 17 15 13 12 12 11 11 10 12 12 8 4 3 0 357 354 352 350 345 339 335 333 328 323 318 308 290 277 271 268 260 250 249 252 254 258 259 255 249 241 237 237 235 234 233 229 226 225 223 221 219 219 217 214 213 212 213 212 210 212 215 219 224 221 214 211 210 211 211
56 54 52 47 46 45 43 41 38 36 34 30 26 25 26 27 25 23 22 21 22 21 18 16 16 17 17 14 11 8 4 358 355 355 352 344 339 338 337 332 328 327 312 287 274 268 262 254 251 257 262 265 264 256 242 232 232 239 240 238 235 232 229 226 225 222 219 219 218 217 215 213 214 214 213 214 215 218 224 223 215 209 209 210 212
57 57 55 50 47 46 44 44 42 38 36 36 34 33 32 30 28 27 27 25 24 24 22 21 22 22 22 22 21 19 16 10 5 2 357 352 347 340 338 340 335 334 338 320 294 280 274 268 265 272 281 282 275 257 237 227 233 245 249 247 242 238 233 229 227 225 220 218 218 218 217 215 214 215 215 215 216 218 222 224 219 212 210 212 212
56 54 53 49 46 46 46 44 39 34 33 34 34 33 31 27 24 23 23 22 23 24 26 27 28 28 28 28 28 26 23 21 17 11 5 1 358 350 341 340 341 340 347 346 329 309 297 292 291 291 292 291 281 262 242 238 244 249 253 254 250 246 241 235 230 226 222 219 218 217 217 217 216 215 216 215 216 218 218 220 218 210 209 213 213
57 54 51 49 44 41 36 31 29 25 24 25 27 29 27 24 22 21 20 22 24 27 30 32 33 35 36 36 34 32 28 26 24 20 16 11 6 1 352 343 340 340 342 341 336 323 306 304 308 303 294 284 275 268 263 261 259 257 254 253 250 247 246 241 233 227 223 219 217 217 217 217 216 216 216 216 216 218 218 217 212 207 208 211 212
57 52 48 43 36 30 25 23 23 20 18 22 26 28 27 27 28 27 27 30 31 31 34 39 40 40 41 40 37 36 33 32 31 28 26 24 19 14 8 360 351 345 342 342 344 337 314 298 297 297 292 281 273 272 275 279 280 271 259 253 252 248 246 244 236 228 224 220 216 215 217 217 216 216 216 216 216 217 218 217 213 212 215 214 212
52 46 39 31 26 24 21 21 23 25 27 31 33 32 31 32 32 33 35 36 37 39 43 47 46 43 42 41 38 37 34 33 33 31 29 29 27 25 23 19 13 4 356 349 351 353 342 319 304 296 289 285 280 275 275 278 281 279 267 255 253 250 245 244 240 230 224 221 217 215 217 218 216 215 215 216 217 218 219 218 216 216 219 218 214
48 42 35 33 32 30 30 32 35 38 40 40 38 35 32 31 30 32 35 37 39 43 46 47 45 41 40 40 40 39 36 33 33 31 29 28 28 29 29 27 27 25 20 12 3 358 353 350 345 330 308 294 288 284 280 269 266 273 270 254 249 252 247 240 239 235 227 222 219 216 216 216 215 214 215 216 216 217 218 219 219 217 217 219 218
50 47 44 44 44 45 47 49 49 47 45 42 38 33 29 28 26 25 27 30 35 39 40 39 37 37 37 38 41 42 39 36 33 31 29 29 28 30 31 32 33 36 37 35 29 20 12 10 7 358 344 332 320 310 303 290 278 279 274 258 250 254 248 239 238 239 232 226 223 218 215 214 213 212 213 215 215 216 217 219 220 218 217 219 220
57 55 54 53 53 54 55 54 50 48 46 43 38 32 28 27 25 23 23 24 28 30 31 31 30 32 34 34 37 39 38 36 34 30 29 31 32 33 33 35 37 40 44 45 42 39 34 30 24 19 16 13 6 357 342 328 314 298 280 269 265 260 250 241 239 239 236 230 225 221 216 214 213 213 213 214 215 216 217 218 219 219 218 219 218
63 62 59 58 57 54 52 49 46 46 46 43 38 32 30 28 25 25 25 25 26 28 29 31 31 31 31 30 31 32 32 32 34 32 29 30 33 35 36 37 39 42 44 46 46 45 42 41 37 33 30 25 18 12 6 360 351 333 306 285 273 260 249 243 239 238 238 233 227 223 219 215 213 213 214 214 214 216 218 219 219 219 218 218 217
69 66 61 58 57 53 50 48 46 48 48 43 37 34 32 30 29 28 30 31 32 33 34 35 35 32 31 32 33 33 32 32 32 33 32 30 30 34 38 40 41 42 43 43 43 42 40 40 39 38 35 30 25 19 13 8 1 350 336 316 286 260 249 247 245 243 241 236 229 224 221 218 215 214 215 215 215 216 218 219 219 219 218 216 214
71 66 62 59 57 54 53 52 51 52 50 44 38 36 34 34 33 33 36 38 38 39 40 39 39 37 36 35 35 35 35 34 33 34 35 34 30 29 34 39 41 42 40 38 37 36 35 34 35 36 34 28 24 21 15 10 4 356 345 335 321 282 257 253 257 259 254 245 235 227 223 219 216 216 216 215 216 218 219 220 219 220 220 216 211
71 65 62 60 59 59 59 59 59 58 55 48 43 40 39 39 39 40 43 45 46 46 45 45 44 43 41 40 37 35 34 34 33 34 36 40 39 35 35 38 39 38 34 31 30 30 30 30 32 35 33 28 24 19 14 10 8 6 0 344 328 312 284 267 265 265 260 254 245 233 226 221 217 216 215 214 217 219 219 220 217 213 216 217 213
70 68 68 67 68 68 67 65 65 64 61 55 49 46 45 45 45 46 48 50 52 52 51 50 49 47 45 43 41 38 36 34 32 30 32 37 41 42 41 40 39 36 32 30 27 27 28 28 29 31 28 24 22 17 11 8 7 11 11 357 329 311 300 284 276 268 261 262 253 234 222 216 213 213 212 213 218 219 218 220 216 208 209 214 214
78 78 78 77 76 74 71 68 66 67 65 59 53 50 48 47 48 50 51 52 53 52 51 50 48 46 44 42 40 38 36 35 32 30 31 32 33 36 37 36 35 35 35 32 28 26 26 25 24 25 23 20 17 12 6 2 2 5 3 356 350 342 328 307 289 273 262 257 244 226 214 206 203 206 208 212 217 216 215 216 213 206 205 214 215
88 86 84 81 78 75 71 67 64 65 64 58 53 51 47 46 49 51 52 52 53 53 51 49 48 45 42 39 37 35 33 32 31 30 33 35 36 37 36 33 33 33 31 27 24 23 21 21 21 20 19 17 14 10 5 1 1 360 353 358 12 10 1 353 326 280 250 232 222 220 216 204 197 200 203 206 211 212 212 212 209 202 198 207 212
91 87 85 81 77 71 66 64 61 61 61 58 53 51 49 48 51 54 54 53 53 53 52 49 47 45 42 39 36 34 33 30 29 29 31 34 38 39 39 36 34 33 27 21 20 21 19 20 23 24 25 25 24 22 20 15 11 9 9 16 20 15 12 14 6 314 228 209 207 219 222 206 198 201 200 196 198 204 208 207 202 192 187 197 202
90 87 83 78 73 69 65 63 61 60 61 60 57 56 55 53 54 56 56 54 54 53 51 49 46 44 41 39 36 35 34 32 31 32 33 35 38 41 41 40 39 38 33 26 24 24 21 20 23 25 26 28 29 29 28 26 24 21 20 21 19 17 19 17 11 9 6 242 206 213 234 229 218 221 219 210 203 203 203 199 193 186 186 192 193